Tracking 35275 objects as of 8-Sep-2026
HD Live streaming from Space Station
objects crossing your sky now

CZ-3 R/B


CZ-3 R/B is no longer on orbit


NORAD ID: 14671
Int'l Code: 1984-008B
Launch date: January 29, 1984
Source: People's Republic of China (PRC)
Launch site: Xichang Space Center, China (XSC)
Decay date: 1984-02-08

Note: This is a ROCKET BODY
Your satellite tracking list
Your tracking list is empty




NASA's NSSDC Master Catalog

Two Line Element Set (TLE):
1 14671U 84008  B 84038.74555849  .13258861 -22311-4 +78275-3 0  9999
2 14671 031.0142 233.8245 0124291 025.3768 335.3214 16.19004158001141
Source of the keplerian elements: AFSPC